Weather History for 98328 - October, 2010

Change the Weather History Date:

Monday, October 18, 2010

  Actual Average Record
Temperature  
Mean Temperature 64 °F -  
Max Temperature 66 °F - - ()
Min Temperature 61 °F - - ()
Degree Days  
Heating Degree Days 2    
Growing Degree Days 14 (Base 50)    
Moisture  
Dew Point 64 °F    
Average Humidity 97    
Maximum Humidity 100    
Minimum Humidity 93    
Precipitation  
Precipitation 5.75 in - - ()
Sea Level Pressure  
Sea Level Pressure 29.38 in    
Wind  
Wind Speed 6 mph ()    
Max Wind Speed 18 mph    
Max Gust Speed -    
Visibility 2.5 miles    
Events Fog , Rain , Thunderstorm    
T = Trace of Precipitation, MM = Missing Value Source: Averaged Metar Reports

Daily Weather History Graph

Daily Weather History Graph

Search for Another Location

Airport or City:

Trip Planner

Search our weather history database for the weather conditions in past years. The results will help you decide how hot, cold, wet, or windy it might be!

Date:

Astronomy

Oct. 18, 2010 Rise Set
Actual Time 5:50 AM PHT 5:34 PM PHT
Civil Twilight 5:28 AM PHT 5:56 PM PHT
Nautical Twilight 5:03 AM PHT 6:21 PM PHT
Astronomical Twilight 4:38 AM PHT 6:46 PM PHT
Moon 2:28 PM PHT (10/18) 1:47 AM PHT (10/18)
Length of Visible Light 12h 27m
Length of Day
11h 44m
Waxing Gibbous, 79% of the Moon is Illuminated
Oct 18
Waxing Gibbous
Oct 23
Full
Oct 30
Last Quarter
Nov 6
New
Nov 14
First Quarter

Hourly Weather History & Observations

Time (PHT) Temp. Dew Point Humidity Pressure Visibility Wind Dir Wind Speed Gust Speed Precip Events Conditions
12:00 AM 64 °F 63 °F 97% 29.65 in 6 mi Calm Calm - -   Overcast
1:00 AM 64 °F 63 °F 95% 29.64 in 6 mi NW 2.2 mph - -   Overcast
2:00 AM 64 °F 63 °F 94% 29.60 in 6 mi NNW 2.2 mph - -   Overcast
3:00 AM 63 °F 62 °F 96% 29.58 in 3 mi NNW 2.2 mph - -   Overcast
4:00 AM 63 °F 62 °F 93% 29.58 in 3 mi NNW 2.2 mph - - Fog Partial Fog
7:00 AM 63 °F 62 °F 95% 29.57 in 3 mi NNW 4.5 mph - - Rain Light Rain Showers
8:00 AM 63 °F 63 °F 99% 29.58 in 3 mi NNW 4.5 mph - - Rain Light Rain Showers
9:00 AM - 64 °F % 29.53 in 0 mi North 174.5 mph - -  
10:00 AM 64 °F 64 °F 98% 29.47 in 3 mi NNW 6.7 mph - - Rain Light Rain
11:00 AM 64 °F 64 °F 98% 29.52 in 5 mi NNW 6.7 mph - - Rain Light Rain
12:00 PM 64 °F 64 °F 99% 29.46 in 2 mi NW 6.7 mph - - Rain Light Rain
2:00 PM 64 °F 64 °F 99% 29.31 in 2 mi NW 11.2 mph - - Rain Rain
3:00 PM 65 °F 65 °F 100% 29.27 in 2 mi NW 11.2 mph - - Rain Rain
4:00 PM 65 °F 65 °F 98% 29.23 in 2 mi NNW 15.7 mph - - Rain Rain
5:00 PM 65 °F 64 °F 96% 29.16 in 1 mi NNW 17.9 mph - - Rain Heavy Rain
6:00 PM 65 °F 64 °F 96% 29.14 in 1 mi NNW 17.9 mph - - Rain Heavy Rain
7:00 PM 65 °F 64 °F 96% 29.12 in 1 mi North 17.9 mph - - Rain Heavy Rain
8:00 PM 65 °F 64 °F 96% 29.10 in 1 mi NW 17.9 mph - - Rain Rain
9:00 PM 65 °F 64 °F 96% 29.12 in 1 mi WNW 13.4 mph - - Rain Rain
10:00 PM 65 °F 65 °F 100% 29.15 in 1 mi SSE 6.7 mph - - Rain Light Rain
11:00 PM 65 °F 65 °F 98% 29.23 in 1 mi South 17.9 mph - - Rain , Thunderstorm Thunderstorms and Rain